| time (UTC) | temp F | wind direction | speed MPH | gust MPH | rain 1hr in | rain 24hr in | rain mn in | humidity % | barometer mb |
| 20260504034504 | 58 | 200 | 5.0 | 10.0 | 0.00 | 0.00 | 0.00 | 63 | 1015.4 |
| 20260504033004 | 58 | 218 | 5.0 | 8.0 | 0.00 | 0.00 | 0.00 | 63 | 1015.5 |
| 20260504031504 | 58 | 161 | 3.0 | 8.0 | 0.00 | 0.00 | 0.00 | 63 | 1015.6 |
| 20260504030005 | 58 | 216 | 3.0 | 8.0 | 0.00 | 0.00 | 0.00 | 62 | 1015.7 |
| 20260504023004 | 58 | 175 | 2.0 | 3.0 | 0.00 | 0.00 | 0.00 | 61 | 1015.7 |
| 20260504021504 | 58 | 192 | 3.0 | 5.0 | 0.00 | 0.00 | 0.00 | 61 | 1015.7 |
| 20260504020004 | 58 | 194 | 3.0 | 5.0 | 0.00 | 0.00 | 0.00 | 61 | 1015.6 |
| 20260504013004 | 58 | 195 | 3.0 | 6.0 | 0.00 | 0.00 | 0.00 | 62 | 1015.7 |
| 20260504010004 | 58 | 176 | 3.0 | 5.0 | 0.00 | 0.00 | 0.00 | 61 | 1015.6 |
| 20260504003004 | 59 | 187 | 2.0 | 12.0 | 0.00 | 0.00 | 0.00 | 60 | 1015.4 |
| 20260504001504 | 59 | 168 | 2.0 | 6.0 | 0.00 | 0.00 | 0.00 | 60 | 1015.3 |
| 20260504000004 | 59 | 203 | 4.0 | 10.0 | 0.00 | 0.00 | 0.00 | 59 | 1015.3 |
| 20260503234504 | 59 | 209 | 6.0 | 14.0 | 0.00 | 0.00 | 0.00 | 60 | 1015.5 |
| 20260503233004 | 60 | 229 | 7.0 | 15.0 | 0.00 | 0.00 | 0.00 | 59 | 1015.3 |
| 20260503231504 | 59 | 257 | 7.0 | 17.0 | 0.00 | 0.00 | 0.00 | 64 | 1015.6 |
| 20260503224504 | 59 | 275 | 2.0 | 9.0 | 0.00 | 0.00 | 0.00 | 67 | 1015.2 |
| 20260503223004 | 59 | 202 | 0.0 | 3.0 | 0.00 | 0.00 | 0.00 | 67 | 1014.8 |
| 20260503221504 | 59 | 202 | 1.0 | 3.0 | 0.00 | 0.00 | 0.00 | 66 | 1015.0 |
| 20260503220004 | 60 | 214 | 1.0 | 3.0 | 0.00 | 0.00 | 0.00 | 66 | 1015.0 |
| 20260503210005 | 61 | 216 | 1.0 | 3.0 | 0.00 | 0.00 | 0.00 | 64 | 1015.0 |
| 20260503201504 | 62 | 272 | 1.0 | 3.0 | 0.00 | 0.00 | 0.00 | 63 | 1015.1 |
| 20260503200005 | 62 | 272 | 1.0 | 3.0 | 0.00 | 0.00 | 0.00 | 63 | 1015.0 |
| 20260503194504 | 62 | 272 | 1.0 | 3.0 | 0.00 | 0.00 | 0.00 | 63 | 1014.9 |
| 20260503193004 | 62 | 276 | 0.0 | 8.0 | 0.00 | 0.00 | 0.00 | 63 | 1014.7 |
| 20260503190004 | 63 | 280 | 6.0 | 9.0 | 0.00 | 0.00 | 0.00 | 62 | 1014.3 |
| 20260503184504 | 64 | 271 | 0.0 | 6.0 | 0.00 | 0.00 | 0.00 | 63 | 1014.1 |
| 20260503183004 | 64 | 273 | 0.0 | 3.0 | 0.00 | 0.00 | 0.00 | 62 | 1013.7 |
| 20260503181505 | 64 | 271 | 1.0 | 3.0 | 0.00 | 0.00 | 0.00 | 62 | 1013.6 |
| 20260503180004 | 65 | 271 | 0.0 | 3.0 | 0.00 | 0.00 | 0.00 | 61 | 1013.4 |
| 20260503174504 | 66 | 311 | 2.0 | 3.0 | 0.00 | 0.00 | 0.00 | 59 | 1013.2 |
| 20260503173004 | 66 | 312 | 0.0 | 3.0 | 0.00 | 0.00 | 0.00 | 59 | 1013.2 |
| 20260503171505 | 66 | 316 | 2.0 | 6.0 | 0.00 | 0.00 | 0.00 | 58 | 1013.2 |
| 20260503081504 | 64 | 115 | 2.0 | 3.0 | 0.00 | 0.00 | 0.00 | 59 | 1016.1 |
| 20260503071504 | 59 | 157 | 0.0 | 2.0 | 0.00 | 0.00 | 0.00 | 68 | 1016.5 |
| 20260503054504 | 56 | 156 | 1.0 | 3.0 | 0.00 | 0.00 | 0.00 | 67 | 1016.0 |
| 20260503053004 | 56 | 156 | 1.0 | 3.0 | 0.00 | 0.00 | 0.00 | 67 | 1016.0 |
| 20260503051505 | 56 | 201 | 2.0 | 3.0 | 0.00 | 0.00 | 0.00 | 66 | 1015.9 |
| 20260503050005 | 56 | 201 | 1.0 | 2.0 | 0.00 | 0.00 | 0.00 | 66 | 1015.8 |
| 20260503044504 | 56 | 201 | 2.0 | 3.0 | 0.00 | 0.00 | 0.00 | 66 | 1015.8 |
| 20260503043004 | 56 | 201 | 1.0 | 3.0 | 0.00 | 0.00 | 0.00 | 65 | 1015.9 |
| 20260503041505 | 56 | 201 | 3.0 | 5.0 | 0.00 | 0.00 | 0.00 | 65 | 1016.1 |
| 20260503040004 | 56 | 201 | 1.0 | 3.0 | 0.00 | 0.00 | 0.00 | 65 | 1016.0 |